Location: Unspecified
(0.0000°N, 0.0000°E)
Time: 18:48:15
(UTC+00:00)

Explorer 7 - Pass Details

Date: 23 November 2019
Orbit: 485 x 680 km, 50.3° (Epoch: 06 December)

Event Time Altitude Azimuth Distance (km) Brightness Sun altitude
Rises 07:54:59 0° 307° (NW) 2,554 9.7 30.0°
Reaches altitude 10° 07:57:20 10° 296° (WNW) 1,662 8.8 30.5°
Maximum altitude 08:00:38 30° 233° (SW) 889 7.9 31.3°
Drops below altitude 10° 08:03:58 10° 170° (S) 1,664 9.8 32.0°
Sets 08:06:19 0° 159° (SSE) 2,556 10.8 32.6°
